CZ-3C DEB, 40829

Orbit data source: Space-Track

CZ-3C DEB, 40829 is space debris in HEO originally from a launch on Sun, 31 Oct 2010 UTC launched from the Xichang Space Center, China (XSC). Debris objects in space refer to the collection of defunct objects orbiting the Earth. Examples of debris include non-operational satellites, rocket bodies, and fragments generated from explosions, collisions, or faulty payload assembly.

Loading next visibility...
Identifier
40829, 2010-057AW
Orbit
HEO
Country
Flag of CNCN / PRC
Related business
Manufacturer
CALT
Mission
Spacecraft
Bus & Motor
Unknown
Mass
Unknown
Launch date (UTC)
2010-10-31 (16 years ago)
Launch vehicle
Unknown
Launch site
Xichang Space Center, China (XSC)
Object type
Payload
Rocket body
Debris
Shape & HBR
Unknown shape, 0.2 m
Radar Cross Section
Medium (>0.1 m² and <1 m²)

Expand to show TLE details & history
Last TLE update: 2 months ago

TLE from 2 months ago
0 CZ-3C DEB
1 40829U 10057AW  26194.40823080  .00000504  00000-0  32489-2 0  9990
2 40829  20.9170 251.5343 7088242 149.1518 285.1886  2.38821228   810
Epoch: 2026-07-13T09:47Z
TLE epoch observation values (Epoch: 2026-07-13T09:47:51.141Z)
Latitude
Longitude
173.36973°
Altitude
23,665.343 km
Speed
3.11 km/s
True Right ascension
16h 46m 30s
True Declination
0° 00' 00"
Sunlit
Object was in daylight at epoch
Visualization orbit readout
Latitude
Unknown
Longitude
Unknown
Altitude
Unknown
Speed
Unknown
Apparent Right ascension
Unknown
Apparent Declination
Unknown
Sunlit
N/A
Visualization observer readout
Local Sidereal Time
08:07:24
Azimuth
Unknown
Elevation
Unknown
Doppler factor
Unknown
Orbital elements
Apogee altitude
34,029.464 km
Perigee altitude
507.133 km
Semi-major axis
23,646.435 km
Eccentricity
0.70882
Inclination
20.917°
RAAN
251.5343°
Arg. of periapsis
149.1518°
True anomaly
210.91272°
Mean anomaly
285.1886°
Eccentric anomaly
247.63177°
Mean motion
0.59689 °/min
Orbital period
603.13 mins
BSTAR
0.0032489
Loading maneuver chart data...
Computing Atmospheric mass density...
Loading historical data...
Loading historical data...
Loading historical data...
Loading historical data...
Loading historical data...
Loading historical data...
Loading historical data...

Documentation

Showing up to 5 results
|